DW4554 Weather Reports


time (UTC)temp
F
wind
direction
speed
knots
gust
knots
rain 1hr
in
rain 24hr
in
rain mn
in
humidity
%
barometer
mb
20260506223905 64 143 2.6 8.7 0.00 0.00 0.00 69 1004.5
20260506223404 64 132 1.7 6.1 0.00 0.00 0.00 69 1004.4
20260506222905 64 178 3.5 7.8 0.00 0.00 0.00 69 1004.4
20260506222404 64 164 2.6 11.3 0.00 0.00 0.00 68 1004.4
20260506221904 65 159 1.7 7.0 0.00 0.00 0.00 68 1004.4
20260506221405 65 153 3.5 7.8 0.00 0.00 0.00 68 1004.2
20260506220405 65 177 6.1 17.4 0.00 0.00 0.00 67 1004.2
20260506215905 65 107 2.6 17.4 0.00 0.00 0.00 67 1004.3
20260506215404 65 149 2.6 12.2 0.00 0.00 0.00 67 1004.2
20260506214904 65 177 5.2 13.0 0.00 0.00 0.00 67 1004.2
20260506213404 66 153 1.7 13.0 0.00 0.00 0.00 66 1004.3
20260506212905 66 161 2.6 11.3 0.00 0.00 0.00 66 1004.2
20260506211904 66 192 5.2 10.4 0.00 0.00 0.00 65 1004.1
20260506211404 66 140 2.6 7.0 0.00 0.00 0.00 65 1004.1
20260506210904 66 132 2.6 6.1 0.00 0.00 0.00 65 1004.0
20260506210404 66 143 4.3 8.7 0.00 0.00 0.00 64 1004.0
20260506205904 66 168 3.5 8.7 0.00 0.00 0.00 64 1004.0
20260506205405 66 162 3.5 8.7 0.00 0.00 0.00 64 1004.0
20260506204905 66 155 2.6 6.1 0.00 0.00 0.00 64 1004.1
20260506203905 66 145 2.6 11.3 0.00 0.00 0.00 64 1004.0
20260506203405 67 109 0.9 5.2 0.00 0.00 0.00 63 1003.8
20260506202905 67 167 3.5 7.0 0.00 0.00 0.00 63 1003.8
20260506202404 67 191 3.5 7.8 0.00 0.00 0.00 63 1003.7
20260506201904 67 166 4.3 11.3 0.00 0.00 0.00 63 1003.7
20260506200904 67 153 0.0 4.3 0.00 0.00 0.00 62 1003.7
20260506195904 67 135 3.5 6.1 0.00 0.00 0.00 61 1003.7
20260506195404 68 150 1.7 5.2 0.00 0.00 0.00 61 1003.8
20260506194912 68 153 2.6 7.8 0.00 0.00 0.00 60 1003.8
20260506194404 68 149 0.9 4.3 0.00 0.00 0.00 60 1003.8
20260506193904 68 136 2.6 6.1 0.00 0.00 0.00 59 1003.8
20260506193407 68 144 4.3 10.4 0.00 0.00 0.00 59 1003.7
20260506192404 68 201 1.7 10.4 0.00 0.00 0.00 58 1003.8
20260506191905 68 158 2.6 6.1 0.00 0.00 0.00 58 1003.8
20260506191404 68 143 2.6 7.8 0.00 0.00 0.00 58 1003.7
20260506185904 69 168 1.7 7.0 0.00 0.00 0.00 56 1003.6
20260506185404 69 81 1.7 5.2 0.00 0.00 0.00 56 1003.4
20260506184904 69 87 2.6 5.2 0.00 0.00 0.00 56 1003.4
20260506184405 69 158 4.3 12.2 0.00 0.00 0.00 56 1003.4
20260506183904 70 168 1.7 5.2 0.00 0.00 0.00 55 1003.4
20260506183404 70 152 3.5 8.7 0.00 0.00 0.00 55 1003.2
20260506182904 70 153 1.7 7.0 0.00 0.00 0.00 55 1003.2
20260506182404 70 175 5.2 15.6 0.00 0.00 0.00 54 1003.2
20260506181905 70 154 1.7 11.3 0.00 0.00 0.00 55 1003.1
20260506181404 71 185 2.6 6.1 0.00 0.00 0.00 55 1003.0
20260506180404 71 190 1.7 7.0 0.00 0.00 0.00 54 1003.0
20260506175404 71 149 0.9 10.4 0.00 0.00 0.00 53 1002.9
20260506174904 71 151 3.5 10.4 0.00 0.00 0.00 53 1002.9
20260506174404 72 100 1.7 11.3 0.00 0.00 0.00 53 1003.0
20260506173904 72 138 0.9 7.8 0.00 0.00 0.00 52 1002.9
20260506173405 72 145 1.7 6.1 0.00 0.00 0.00 52 1002.9
20260506172904 72 117 0.0 5.2 0.00 0.00 0.00 51 1002.9
20260506172404 72 125 1.7 6.1 0.00 0.00 0.00 51 1003.0
20260506171904 72 157 1.7 4.3 0.00 0.00 0.00 51 1003.0
20260506171404 72 31 1.7 10.4 0.00 0.00 0.00 50 1003.0
20260506165905 73 193 4.3 10.4 0.00 0.00 0.00 50 1003.0
20260506164905 73 97 1.7 13.0 0.00 0.00 0.00 50 1003.2
20260506163904 73 111 1.7 6.1 0.00 0.00 0.00 50 1003.2
20260506163404 73 141 2.6 10.4 0.00 0.00 0.00 50 1003.3
20260506162404 73 144 1.7 10.4 0.00 0.00 0.00 51 1003.4
20260506161904 73 193 1.7 6.1 0.00 0.00 0.00 51 1003.5
20260506160905 74 104 1.7 6.1 0.00 0.00 0.00 51 1003.6
20260506160404 74 163 2.6 7.8 0.00 0.00 0.00 51 1003.6
20260506155904 74 86 3.5 13.0 0.00 0.00 0.00 52 1003.6
20260506155404 74 137 2.6 10.4 0.00 0.00 0.00 52 1003.7
20260506154904 74 148 1.7 7.0 0.00 0.00 0.00 52 1003.7
20260506154404 74 173 1.7 13.0 0.00 0.00 0.00 51 1003.7
20260506153405 74 117 2.6 6.1 0.00 0.00 0.00 51 1003.8
20260506152904 74 98 2.6 7.8 0.00 0.00 0.00 51 1004.0
20260506152404 74 173 2.6 5.2 0.00 0.00 0.00 52 1004.0
20260506151904 74 109 0.9 6.1 0.00 0.00 0.00 53 1004.0
20260506150404 74 135 2.6 12.2 0.00 0.00 0.00 52 1004.1
20260506145404 74 135 4.3 11.3 0.00 0.00 0.00 50 1004.2
20260506144905 74 124 2.6 11.3 0.00 0.00 0.00 51 1004.3
20260506144412 74 130 2.6 7.8 0.00 0.00 0.00 51 1004.3
20260506143904 75 201 5.2 13.0 0.00 0.00 0.00 51 1004.2
20260506142904 74 178 4.3 10.4 0.00 0.00 0.00 52 1004.4
20260506142404 74 175 3.5 10.4 0.00 0.00 0.00 51 1004.4
20260506141904 74 190 5.2 10.4 0.00 0.00 0.00 52 1004.5
20260506141404 74 119 2.6 7.0 0.00 0.00 0.00 52 1004.3
20260506140904 74 146 2.6 5.2 0.00 0.00 0.00 52 1004.4
20260506140404 74 113 3.5 10.4 0.00 0.00 0.00 52 1004.5
20260506134905 75 213 2.6 10.4 0.00 0.00 0.00 51 1004.7
20260506134404 75 139 2.6 7.8 0.00 0.00 0.00 51 1004.7
20260506133404 75 126 2.6 7.0 0.00 0.00 0.00 51 1004.8
20260506132905 76 153 5.2 10.4 0.00 0.00 0.00 50 1004.9
20260506132404 76 180 3.5 7.8 0.00 0.00 0.00 50 1004.9
20260506131904 76 136 5.2 7.8 0.00 0.00 0.00 51 1005.0
20260506130904 75 150 4.3 10.4 0.00 0.00 0.00 52 1005.0
20260506130405 75 184 4.3 13.9 0.00 0.00 0.00 51 1005.1
20260506125905 75 205 5.2 13.9 0.00 0.00 0.00 51 1005.2
20260506124904 75 209 5.2 14.8 0.00 0.00 0.00 51 1005.2
20260506124404 75 187 6.1 13.0 0.00 0.00 0.00 51 1005.2
20260506123904 76 183 4.3 13.0 0.00 0.00 0.00 51 1005.3
20260506122404 75 166 5.2 7.8 0.00 0.00 0.00 49 1005.3
20260506121904 75 178 1.7 8.7 0.00 0.00 0.00 50 1005.2
20260506121404 75 159 5.2 12.2 0.00 0.00 0.00 50 1005.3
20260506115904 75 203 4.3 10.4 0.00 0.00 0.00 49 1005.1
20260506115404 75 197 2.6 10.4 0.00 0.00 0.00 48 1005.1
20260506114904 75 185 6.1 10.4 0.00 0.00 0.00 50 1005.1
20260506114405 74 194 4.3 10.4 0.00 0.00 0.00 50 1005.1
20260506113904 74 220 3.5 6.1 0.00 0.00 0.00 50 1005.3
20260506113405 74 181 3.5 10.4 0.00 0.00 0.00 49 1005.3
20260506112904 74 222 4.3 11.3 0.00 0.00 0.00 50 1005.5
20260506112404 73 186 4.3 10.4 0.00 0.00 0.00 50 1005.5
20260506110904 73 220 3.5 8.7 0.00 0.00 0.00 52 1005.4
20260506110404 73 200 7.0 11.3 0.00 0.00 0.00 51 1005.5
20260506105904 73 218 5.2 13.0 0.00 0.00 0.00 51 1005.5
20260506104904 73 36 2.6 7.0 0.00 0.00 0.00 51 1005.5
20260506104404 73 203 4.3 7.8 0.00 0.00 0.00 52 1005.5
20260506103905 73 124 3.5 7.8 0.00 0.00 0.00 52 1005.6
20260506103404 73 174 3.5 7.8 0.00 0.00 0.00 52 1005.7
20260506102904 73 191 2.6 6.1 0.00 0.00 0.00 51 1005.7
20260506102404 73 135 3.5 7.0 0.00 0.00 0.00 50 1005.8
20260506101404 74 238 3.5 8.7 0.00 0.00 0.00 52 1005.8
20260506100904 73 202 2.6 5.2 0.00 0.00 0.00 52 1005.8
20260506100405 73 124 3.5 6.1 0.00 0.00 0.00 50 1005.9
20260506095904 73 117 2.6 8.7 0.00 0.00 0.00 51 1005.9
20260506095409 73 130 1.7 7.0 0.00 0.00 0.00 51 1006.0
20260506094904 73 116 4.3 7.8 0.00 0.00 0.00 52 1006.0
20260506094404 73 182 2.6 11.3 0.00 0.00 0.00 53 1006.1
20260506093404 72 233 4.3 7.8 0.00 0.00 0.00 56 1006.0
20260506092905 72 189 3.5 7.0 0.00 0.00 0.00 57 1006.1
20260506092404 71 247 2.6 4.3 0.00 0.00 0.00 59 1006.0
20260506091904 71 241 5.2 8.7 0.00 0.00 0.00 58 1006.1
20260506091404 71 192 1.7 8.7 0.00 0.00 0.00 57 1006.0
20260506090904 70 190 3.5 7.0 0.00 0.00 0.00 59 1006.2
20260506090405 70 143 1.7 7.0 0.00 0.00 0.00 57 1006.1
20260506085904 70 206 4.3 8.7 0.00 0.00 0.00 59 1006.2
20260506084904 70 178 5.2 11.3 0.00 0.00 0.00 61 1006.1
20260506084404 69 159 2.6 6.1 0.00 0.00 0.00 60 1006.1
20260506083904 69 187 4.3 10.4 0.00 0.00 0.00 61 1006.1
20260506083405 69 213 2.6 11.3 0.00 0.00 0.00 62 1006.1
20260506082905 68 230 1.7 8.7 0.00 0.00 0.00 62 1006.1
20260506082404 68 206 7.0 10.4 0.00 0.00 0.00 63 1006.2
20260506081904 68 225 2.6 7.8 0.00 0.00 0.00 65 1006.0
20260506081405 68 211 5.2 10.4 0.00 0.00 0.00 64 1006.0
20260506080904 68 209 4.3 7.8 0.00 0.00 0.00 64 1006.0
20260506080405 68 176 5.2 10.4 0.00 0.00 0.00 64 1006.1
20260506073405 66 197 4.3 7.8 0.00 0.00 0.00 68 1006.1
20260506072904 66 181 2.6 7.0 0.00 0.00 0.00 68 1006.2
20260506072404 65 171 6.1 11.3 0.00 0.00 0.00 68 1006.2
20260506071904 65 205 3.5 7.0 0.00 0.00 0.00 69 1006.1
20260506071404 65 186 1.7 6.1 0.00 0.00 0.00 69 1006.1
20260506070904 64 205 1.7 6.1 0.00 0.00 0.00 69 1006.1
20260506070404 64 179 2.6 6.1 0.00 0.00 0.00 69 1006.1
20260506062404 61 233 1.7 5.2 0.00 0.00 0.00 74 1006.0
20260506061904 61 160 1.7 6.1 0.00 0.00 0.00 75 1006.1
20260506061404 60 214 3.5 7.8 0.00 0.00 0.00 75 1006.1
20260506060904 60 181 2.6 6.1 0.00 0.00 0.00 76 1006.1
20260506060404 60 191 2.6 5.2 0.00 0.00 0.00 76 1006.0
20260506051404 56 53 1.7 2.6 0.00 0.00 0.00 82 1005.7
20260506050904 56 56 0.9 2.6 0.00 0.00 0.00 83 1005.7
20260506044404 55 67 0.9 2.6 0.00 0.00 0.00 83 1005.6
20260506043905 54 67 0.9 1.7 0.00 0.00 0.00 83 1005.5
20260506043404 54 68 0.0 1.7 0.00 0.00 0.00 83 1005.4
20260506042904 54 68 0.9 2.6 0.00 0.00 0.00 83 1005.4
20260506042404 54 68 1.7 2.6 0.00 0.00 0.00 82 1005.3
20260506041404 54 68 0.9 1.7 0.00 0.00 0.00 81 1005.4
20260506040904 54 68 0.0 1.7 0.00 0.00 0.00 81 1005.3
20260506035904 55 68 1.7 2.6 0.00 0.00 0.00 80 1005.3
20260506034905 55 68 0.9 2.6 0.00 0.00 0.00 79 1005.2
20260506034404 55 68 0.0 1.7 0.00 0.00 0.00 78 1005.1
20260506033904 55 68 0.9 2.6 0.00 0.00 0.00 78 1005.2
20260506033404 56 68 0.0 0.0 0.00 0.00 0.00 77 1005.1
20260506032904 56 68 0.0 0.0 0.00 0.00 0.00 77 1005.1
20260506032405 56 68 0.0 0.0 0.00 0.00 0.00 77 1005.0
20260506031405 56 68 0.0 2.6 0.00 0.00 0.00 77 1004.9
20260506030904 56 68 0.0 2.6 0.00 0.00 0.00 77 1004.8
20260506025904 57 67 0.9 1.7 0.00 0.00 0.00 76 1004.7
20260506025404 57 67 0.9 2.6 0.00 0.00 0.00 75 1004.7
20260506024905 57 67 0.9 1.7 0.00 0.00 0.00 75 1004.8
20260506023904 57 80 2.6 6.1 0.00 0.00 0.00 74 1004.7
20260506023404 58 61 0.9 2.6 0.00 0.00 0.00 74 1004.7
20260506022905 58 61 0.0 2.6 0.00 0.00 0.00 74 1004.7
20260506021904 58 77 0.9 2.6 0.00 0.00 0.00 73 1004.8
20260506021404 58 77 0.0 1.7 0.00 0.00 0.00 73 1004.9
20260506020904 58 77 0.9 4.3 0.00 0.00 0.00 73 1004.8
20260506020404 58 104 0.9 5.2 0.00 0.00 0.00 73 1004.7
20260506015904 58 97 0.9 2.6 0.00 0.00 0.00 72 1004.6
20260506015404 59 117 0.9 4.3 0.00 0.00 0.00 72 1004.7
20260506014904 59 97 0.9 2.6 0.00 0.00 0.00 72 1004.6
20260506013904 59 103 0.9 7.8 0.00 0.00 0.00 71 1004.7
20260506012905 59 135 1.7 4.3 0.00 0.00 0.00 71 1004.8
20260506012404 59 142 0.0 0.9 0.00 0.00 0.00 71 1004.7
20260506011904 59 141 1.7 7.0 0.00 0.00 0.00 70 1004.6
20260506010904 60 155 2.6 7.8 0.00 0.00 0.00 70 1004.4
20260506010404 60 98 2.6 10.4 0.00 0.00 0.00 70 1004.3
20260506005905 60 111 0.9 5.2 0.00 0.00 0.00 69 1004.3
20260506005404 60 117 0.9 4.3 0.00 0.00 0.00 69 1004.2
20260506004904 60 131 0.9 8.7 0.00 0.00 0.00 69 1004.2
20260506004404 60 122 0.9 4.3 0.00 0.00 0.00 68 1004.3
20260506003904 60 88 1.7 6.1 0.00 0.00 0.00 68 1004.3
20260506003404 61 124 0.9 5.2 0.00 0.00 0.00 68 1004.3
20260506002905 61 124 0.9 5.2 0.00 0.00 0.00 68 1004.3
20260506002404 61 96 2.6 7.0 0.00 0.00 0.00 68 1004.2
20260506001905 61 80 0.9 2.6 0.00 0.00 0.00 67 1004.2
20260506001404 61 112 1.7 5.2 0.00 0.00 0.00 67 1004.2
20260506000904 61 289 2.6 7.8 0.00 0.00 0.00 67 1004.2
20260506000404 61 124 1.7 4.3 0.00 0.00 0.00 67 1004.1
20260505235904 61 158 0.9 7.0 0.00 0.00 0.00 66 1004.1
20260505235404 61 139 3.5 6.1 0.00 0.00 0.00 66 1004.2
20260505234412 61 162 1.7 2.6 0.00 0.00 0.00 66 1004.1
20260505233904 61 119 1.7 6.1 0.00 0.00 0.00 65 1004.1
20260505233404 61 62 1.7 4.3 0.00 0.00 0.00 65 1004.0
20260505232912 62 49 0.9 2.6 0.00 0.00 0.00 64 1004.1
20260505231905 62 150 1.7 20.0 0.00 0.00 0.00 64 1004.2
20260505231404 62 139 1.7 5.2 0.00 0.00 0.00 64 1004.3
20260505230905 62 121 1.7 4.3 0.00 0.00 0.00 63 1004.3
20260505230404 62 95 0.9 2.6 0.00 0.00 0.00 63 1004.3
20260505225904 62 83 0.9 2.6 0.00 0.00 0.00 63 1004.3
20260505225404 62 117 1.7 11.3 0.00 0.00 0.00 63 1004.3
20260505224905 62 121 1.7 5.2 0.00 0.00 0.00 63 1004.3
20260505224404 62 78 2.6 10.4 0.00 0.00 0.00 63 1004.1